Tracking 27382 objects as of 5-Jun-2023
HD Live streaming from Space Station
objects crossing your sky now

STARLINK-1417

Track STARLINK-1417 now!
10-day predictions
STARLINK-1417 is classified as:


NORAD ID: 45693
Int'l Code: 2020-035AN
Perigee: 553.8 km
Apogee: 555.0 km
Inclination: 53.1 °
Period: 95.6 minutes
Semi major axis: 6925 km
RCS: Unknown
Launch date: June 4, 2020
Source: United States (US)
Launch site: AIR FORCE EASTERN TEST RANGE (AFETR)
Your satellite tracking list
Your tracking list is empty




NASA's NSSDC Master Catalog

Two Line Element Set (TLE):
1 45693U 20035AN  23155.61366312  .00002759  00000-0  20411-3 0  9995
2 45693  53.0534 266.5347 0000875 104.8160 255.2926 15.06389894166773
Source of the keplerian elements: AFSPC